Weather History for Jordan, MT

Change the Weather History Date:

Monday, October 4, 2010

  Actual Average Record
Temperature  
Mean Temperature 61 °F 49 °F  
Max Temperature 83 °F 64 °F 92 °F (1910)
Min Temperature 39 °F 34 °F 21 °F (2000)
Degree Days  
Heating Degree Days 4 16  
Month to date heating degree days 21 62  
Since 1 July heating degree days 335 388  
Cooling Degree Days 0 0  
Month to date cooling degree days 0 0  
Year to date cooling degree days 367 420  
Growing Degree Days 12 (Base 50)    
Moisture  
Dew Point 43 °F    
Average Humidity 59    
Maximum Humidity 93    
Minimum Humidity 24    
Precipitation  
Precipitation 0.00 in 0.03 in 0.71 in (1989)
Month to date precipitation 0.00 0.12  
Year to date precipitation 15.23 11.25  
Snow  
Snow 0.00 in - - ()
Month to date snowfall 0.0  
Since 1 July snowfall 0.0  
Since 1 September snowfall 0.0  
Snow Depth 0.00 in    
Sea Level Pressure  
Sea Level Pressure 29.77 in    
Wind  
Wind Speed 4 mph (ESE)    
Max Wind Speed 13 mph    
Max Gust Speed 15 mph    
T = Trace of Precipitation, MM = Missing Value Source: NWS Daily Summary

Daily Weather History Graph

Daily Weather History Graph

Search for Another Location

Airport:

Trip Planner

Search our weather history database for the weather conditions in past years. The results will help you decide how hot, cold, wet, or windy it might be!

Date:

Astronomy

Oct. 04, 2010 Rise Set
Actual Time 7:10 AM MDT 6:41 PM MDT
Civil Twilight 6:40 AM MDT 7:11 PM MDT
Nautical Twilight 6:04 AM MDT 7:47 PM MDT
Astronomical Twilight 5:28 AM MDT 8:23 PM MDT
Moon 3:08 AM MDT (10/4) 4:52 PM MDT (10/4)
Length of Visible Light 12h 31m
Length of Day
11h 30m
Waning Crescent, 13% of the Moon is Illuminated
Oct 4
Waning Crescent
Oct 7
New
Oct 14
First Quarter
Oct 22
Full
Oct 30
Last Quarter

Hourly Weather History & Observations

Time (MDT) Temp. Windchill Dew Point Humidity Pressure Visibility Wind Dir Wind Speed Gust Speed Precip Events Conditions
12:48 AM 55.0 °F - 44.1 °F 67% 29.80 in - ENE 5.8 mph - N/A   Unknown
1:48 AM 48.0 °F - 42.1 °F 80% 29.81 in - Calm Calm - N/A   Unknown
2:48 AM 46.0 °F - 42.1 °F 86% 29.80 in - Calm Calm - N/A   Unknown
3:48 AM 43.0 °F - 39.0 °F 86% 29.78 in - Calm Calm - N/A   Unknown
4:48 AM 41.0 °F 39.0 °F 39.0 °F 93% 29.78 in - ESE 3.5 mph - N/A   Unknown
5:48 AM 42.1 °F - 39.9 °F 92% 29.78 in - Calm Calm - N/A   Unknown
6:48 AM 41.0 °F - 37.9 °F 89% 29.81 in - Calm Calm - N/A   Unknown
7:48 AM 41.0 °F 38.0 °F 39.0 °F 93% 29.82 in - West 4.6 mph - N/A   Unknown
8:48 AM 48.0 °F - 43.0 °F 83% 29.81 in - Calm Calm - N/A   Unknown
9:48 AM 60.1 °F - 45.0 °F 57% 29.80 in - Calm Calm - N/A   Unknown
10:48 AM 69.1 °F - 45.0 °F 42% 29.79 in - East 4.6 mph - N/A   Unknown
11:48 AM 73.0 °F - 44.1 °F 35% 29.78 in - East 5.8 mph - N/A   Unknown
12:48 PM 79.0 °F - 41.0 °F 26% 29.75 in - ESE 9.2 mph - N/A   Unknown
1:48 PM 81.0 °F - 43.0 °F 26% 29.74 in - SE 11.5 mph - N/A   Unknown
2:48 PM 82.9 °F - 43.0 °F 24% 29.72 in - ESE 11.5 mph - N/A   Unknown
3:48 PM 82.9 °F - 42.1 °F 24% 29.72 in - SSE 10.4 mph - N/A   Unknown
4:48 PM 82.0 °F - 43.0 °F 25% 29.72 in - SSE 6.9 mph - N/A   Unknown
5:48 PM 78.1 °F - 48.0 °F 35% 29.72 in - SE 4.6 mph - N/A   Unknown
6:48 PM 69.1 °F - 48.0 °F 47% 29.75 in - East 4.6 mph - N/A   Unknown
7:48 PM 64.0 °F - 46.0 °F 52% 29.77 in - ENE 3.5 mph - N/A   Unknown
8:48 PM 55.0 °F - 46.9 °F 74% 29.78 in - Calm Calm - N/A   Unknown
9:48 PM 53.1 °F - 46.9 °F 80% 29.78 in - West 6.9 mph - N/A   Unknown
10:48 PM 52.0 °F - 46.0 °F 80% 29.79 in - West 4.6 mph - N/A   Unknown
11:48 PM 51.1 °F - 46.9 °F 86% 29.79 in - West 5.8 mph - N/A   Unknown